Location: Zagreb
(45.8000°N, 16.0000°E)
Time: 19:53:56
(UTC+01:00)

Oscar 11 - Pass Details

Date: 08 November 2020
Orbit: 613 x 625 km, 97.6° (Epoch: 01 December)

Event Time Altitude Azimuth Distance (km) Brightness Sun altitude
Rises 06:02:59 0° 16° (NNE) 2,891 10.5 -8.0°
Reaches altitude 10° 06:05:12 10° 21° (NNE) 1,982 9.7 -7.6°
Maximum altitude 06:09:27 57° 100° (E) 725 7.9 -6.9°
Drops below altitude 10° 06:13:41 10° 180° (S) 1,971 9.9 -6.2°
Sets 06:15:53 0° 184° (S) 2,873 10.7 -5.8°
